NN3A-3 Weather Reports


time (UTC)temp
F
wind
direction
speed
knots
gust
knots
rain 1hr
in
rain 24hr
in
rain mn
in
humidity
%
barometer
mb
20260509174016 54 128 0.0 0.0 0.02 0.00 0.18 98 1007.2
20260509173516 52 128 0.0 0.0 0.02 0.00 0.18 98 1007.2
20260509173016 54 128 0.0 0.0 0.02 0.00 0.18 98 1007.2
20260509172517 53 128 0.0 0.0 0.02 0.00 0.18 98 1007.2
20260509172018 52 128 0.0 0.0 0.02 0.00 0.18 98 1007.2
20260509171517 53 128 0.0 0.0 0.02 0.00 0.18 98 1007.2
20260509171018 54 128 0.0 0.0 0.02 0.00 0.18 98 1007.2
20260509170517 53 128 0.0 0.0 0.02 0.00 0.18 98 1007.2
20260509165518 51 128 0.0 0.0 0.02 0.00 0.18 98 1007.2
20260509165018 54 128 0.0 0.0 0.02 0.00 0.18 98 1007.2
20260509164519 53 128 0.0 0.0 0.02 0.00 0.18 98 1007.2
20260509164018 53 128 0.0 0.0 0.01 0.00 0.17 99 1007.2
20260509163518 53 128 0.0 0.0 0.01 0.00 0.17 99 1007.6
20260509163019 54 128 0.0 0.0 0.01 0.00 0.17 99 1007.6
20260509162518 53 128 0.0 0.0 0.01 0.00 0.17 99 1007.6
20260509162019 52 128 0.0 0.0 0.01 0.00 0.17 99 1007.6
20260509161519 54 128 0.0 0.0 0.01 0.00 0.17 99 1007.6
20260509160519 53 128 0.0 0.0 0.01 0.00 0.17 99 1007.6
20260509155522 53 128 0.0 0.0 0.01 0.00 0.17 99 1007.6
20260509154021 52 128 0.0 0.0 0.00 0.00 0.16 98 1007.6
20260509153521 54 128 0.0 0.0 0.00 0.00 0.16 99 1007.9
20260509152522 53 128 0.0 0.0 0.00 0.00 0.16 99 1007.6
20260509152021 54 128 0.0 0.0 0.00 0.00 0.16 99 1007.9
20260509151522 54 128 0.0 0.0 0.00 0.00 0.16 99 1007.6
20260509150522 52 128 0.0 0.0 0.00 0.00 0.16 99 1007.6
20260509150022 53 128 0.0 0.0 0.00 0.00 0.15 99 1007.6
20260509145522 52 128 0.0 0.0 0.00 0.00 0.15 99 1007.6
20260509145022 51 128 0.0 0.0 0.00 0.00 0.15 99 1007.6
20260509144522 52 128 0.0 0.0 0.00 0.00 0.15 99 1007.6
20260509144023 53 128 0.0 0.0 0.03 0.00 0.15 99 1007.9
20260509143522 52 128 0.0 0.0 0.03 0.00 0.15 98 1007.6
20260509143022 53 128 0.0 0.0 0.03 0.00 0.15 99 1007.6
20260509142523 53 128 0.0 0.0 0.03 0.00 0.15 99 1007.6
20260509142023 53 128 0.0 0.0 0.03 0.00 0.15 99 1007.6
20260509141523 52 128 0.0 0.0 0.03 0.00 0.15 99 1007.6
20260509141023 52 128 0.0 0.0 0.03 0.00 0.15 99 1007.6
20260509140524 51 128 0.0 0.0 0.03 0.00 0.15 99 1007.6
20260509140023 53 128 0.0 0.0 0.03 0.00 0.15 99 1007.6
20260509135524 52 128 0.0 0.0 0.03 0.00 0.15 99 1007.9
20260509135024 52 128 0.0 0.0 0.03 0.00 0.15 99 1008.3
20260509134524 52 128 0.0 0.0 0.03 0.00 0.15 99 1007.9
20260509134024 51 128 0.0 0.0 0.03 0.00 0.14 99 1008.3
20260509133524 52 128 0.0 0.0 0.03 0.00 0.14 99 1008.3
20260509132525 52 128 0.0 0.0 0.03 0.00 0.13 99 1007.9
20260509132025 52 128 0.0 0.0 0.03 0.00 0.13 99 1007.9
20260509131025 50 128 0.0 0.0 0.03 0.00 0.13 99 1007.9
20260509130526 52 128 0.0 0.0 0.03 0.00 0.12 99 1008.3
20260509130025 51 128 0.0 0.0 0.03 0.00 0.12 99 1008.3
20260509125525 50 128 0.0 0.0 0.03 0.00 0.12 99 1008.3
20260509125026 51 128 0.0 0.0 0.03 0.00 0.12 99 1008.3
20260509124526 50 128 0.0 0.0 0.03 0.00 0.12 99 1008.3
20260509124026 51 128 0.0 0.0 0.02 0.00 0.12 99 1008.3
20260509123527 51 128 0.0 0.0 0.02 0.00 0.12 99 1008.3
20260509123026 50 128 0.0 0.0 0.02 0.00 0.11 98 1008.3
20260509122526 51 128 0.0 0.0 0.02 0.00 0.11 98 1008.3
20260509122026 50 128 0.0 0.0 0.02 0.00 0.11 98 1008.3
20260509121527 50 128 0.0 0.0 0.02 0.00 0.10 98 1008.3
20260509121027 51 128 0.0 0.0 0.02 0.00 0.10 98 1008.3
20260509120527 50 128 0.0 0.0 0.02 0.00 0.09 98 1008.3
20260509120027 51 128 0.0 0.0 0.02 0.00 0.09 98 1008.3
20260509115527 51 128 0.0 0.0 0.02 0.00 0.09 98 1008.3
20260509115027 51 128 0.0 0.0 0.02 0.00 0.09 98 1008.3
20260509114527 51 128 0.0 0.0 0.02 0.00 0.09 98 1008.3
20260509114028 50 128 0.0 0.0 0.04 0.00 0.08 98 1008.3
20260509113528 49 128 0.0 0.0 0.04 0.00 0.08 98 1008.3
20260509113028 51 128 0.0 0.0 0.04 0.00 0.08 98 1008.3
20260509112528 50 128 0.0 0.0 0.04 0.00 0.08 97 1008.3
20260509112028 49 128 0.0 0.0 0.04 0.00 0.08 97 1008.3
20260509111029 49 128 0.0 0.0 0.04 0.00 0.08 97 1008.3
20260509110528 49 128 0.0 0.0 0.04 0.00 0.08 97 1008.3
20260509110028 50 128 0.0 0.0 0.04 0.00 0.08 97 1008.3
20260509105529 50 128 0.0 0.0 0.04 0.00 0.08 97 1008.3
20260509105029 50 128 0.0 0.0 0.04 0.00 0.07 96 1008.3
20260509104529 51 128 0.0 0.0 0.04 0.00 0.07 96 1008.3
20260509104028 50 128 0.0 0.0 0.03 0.00 0.07 96 1008.3
20260509103529 50 128 0.0 0.0 0.03 0.00 0.07 96 1008.3
20260509103029 49 128 0.0 0.0 0.03 0.00 0.07 96 1008.6
20260509102529 50 128 0.0 0.0 0.03 0.00 0.07 95 1008.6
20260509102029 51 128 0.0 0.0 0.03 0.00 0.06 95 1008.6
20260509101529 50 128 0.0 0.0 0.03 0.00 0.06 95 1008.6
20260509101029 51 128 0.0 0.0 0.03 0.00 0.06 95 1008.6
20260509100531 50 128 0.0 0.0 0.03 0.00 0.05 94 1008.3
20260509100031 50 128 0.0 0.0 0.03 0.00 0.05 94 1008.6
20260509095531 51 128 0.0 0.0 0.03 0.00 0.04 94 1008.6
20260509095030 51 128 0.0 0.0 0.03 0.00 0.04 94 1008.6
20260509094531 51 128 0.0 0.0 0.03 0.00 0.03 94 1008.6
20260509094031 52 128 0.0 0.0 0.00 0.00 0.03 94 1008.6
20260509093532 50 128 0.0 0.0 0.00 0.00 0.03 93 1008.6
20260509093031 51 128 0.0 0.0 0.00 0.00 0.02 93 1008.6
20260509092532 51 128 0.0 0.0 0.00 0.00 0.02 93 1008.6
20260509092033 51 128 0.0 0.0 0.00 0.00 0.02 92 1008.6
20260509091532 51 128 0.0 0.0 0.00 0.00 0.01 93 1008.6
20260509091031 52 128 0.0 0.0 0.00 0.00 0.01 92 1008.3
20260509090531 51 128 0.0 0.0 0.00 0.00 0.01 92 1008.3
20260509090032 52 128 0.0 0.0 0.00 0.00 0.00 92 1008.3
20260509085532 52 128 0.0 0.0 0.00 0.00 0.00 91 1008.3
20260509085033 53 128 0.0 0.0 0.00 0.00 0.00 91 1008.3
20260509084532 53 128 0.0 0.0 0.00 0.00 0.00 90 1008.3
20260509084033 53 128 0.0 0.0 0.00 0.00 0.00 89 1007.9
20260509083534 51 128 0.0 0.0 0.00 0.00 0.00 88 1007.9
20260509083033 52 128 0.0 0.0 0.00 0.00 0.00 88 1007.9
20260509082533 51 128 0.0 0.0 0.00 0.00 0.00 87 1007.6
20260509082033 52 128 0.0 0.0 0.00 0.00 0.00 89 1007.6
20260509081534 51 128 0.0 0.0 0.00 0.00 0.00 89 1007.6
20260509081034 51 128 0.0 0.0 0.00 0.00 0.00 89 1007.6
20260509080535 52 128 0.0 0.0 0.00 0.00 0.00 89 1007.2
20260509080034 52 128 0.0 0.0 0.00 0.00 0.00 88 1007.2
20260509075534 51 128 0.0 0.0 0.00 0.00 0.00 89 1007.2
20260509074535 50 128 0.0 0.0 0.00 0.00 0.00 90 1007.2
20260509074035 51 128 0.0 0.0 0.00 0.00 0.00 90 1007.2
20260509073035 52 128 0.0 0.0 0.00 0.00 0.00 91 1007.2
20260509072035 51 128 0.0 0.0 0.00 0.00 0.00 91 1007.2
20260509071536 52 128 0.0 0.0 0.00 0.00 0.00 91 1007.2
20260509071036 51 128 0.0 0.0 0.00 0.00 0.00 91 1007.2
20260509070536 52 128 0.0 0.0 0.00 0.00 0.00 91 1007.2
20260509065036 51 128 0.0 0.0 0.00 0.00 0.00 91 1007.2
20260509064536 51 128 0.0 0.0 0.00 0.00 0.00 91 1007.2
20260509064036 52 128 0.0 0.0 0.00 0.00 0.00 92 1007.2
20260509063537 51 128 0.0 0.0 0.00 0.00 0.00 92 1007.6
20260509062537 53 128 0.0 0.0 0.00 0.00 0.00 92 1007.9
20260509061537 52 128 0.0 0.0 0.00 0.00 0.00 91 1008.3
20260509060538 52 128 0.0 0.0 0.00 0.00 0.00 91 1008.3
20260509055538 52 128 0.0 0.0 0.00 0.00 0.00 91 1008.6
20260509054538 53 128 0.0 0.0 0.00 0.00 0.00 91 1008.6
20260509054039 52 128 0.0 0.0 0.00 0.00 0.00 91 1008.6
20260509053539 53 128 0.0 0.0 0.00 0.00 0.00 91 1008.6
20260509053039 53 128 0.0 0.0 0.00 0.00 0.00 91 1008.6
20260509052539 53 128 0.0 0.0 0.00 0.00 0.00 91 1008.9
20260509052039 53 128 0.0 0.0 0.00 0.00 0.00 91 1008.9
20260509051539 53 128 0.0 0.0 0.00 0.00 0.00 91 1008.9
20260509050540 52 128 0.0 0.0 0.00 0.00 0.00 91 1009.3
20260509050039 53 128 0.0 0.0 0.00 0.00 0.00 91 1009.3
20260509045540 53 128 0.0 0.0 0.00 0.00 0.00 91 1008.9
20260509045040 53 128 0.0 0.0 0.00 0.00 0.00 91 1008.9
20260509044540 52 128 0.0 0.0 0.00 0.00 0.00 91 1008.9
20260509043541 53 128 0.0 0.0 0.00 0.00 0.00 90 1008.9
20260509043040 53 128 0.0 0.0 0.00 0.00 0.00 90 1008.9
20260509042540 54 128 0.0 0.0 0.00 0.00 0.00 90 1008.9
20260509042041 53 128 0.0 0.0 0.00 0.00 0.00 90 1008.9
20260509040541 54 128 0.0 0.0 0.00 0.00 0.00 89 1009.3
20260509040041 54 128 0.0 0.0 0.00 0.00 0.00 89 1009.3
20260509035542 54 128 0.0 0.0 0.00 0.00 0.00 89 1009.3
20260509034544 54 128 0.0 0.0 0.00 0.00 0.00 88 1009.3
20260509033542 53 128 0.0 0.0 0.00 0.00 0.00 88 1009.3
20260509033042 54 128 0.0 0.0 0.00 0.00 0.00 87 1009.3
20260509032042 53 128 0.0 0.0 0.00 0.00 0.00 86 1008.9
20260509031542 54 128 0.0 0.0 0.00 0.00 0.00 86 1009.3
20260509031043 54 128 0.0 0.0 0.00 0.00 0.00 85 1009.3
20260509030543 54 128 0.0 0.0 0.00 0.00 0.00 86 1009.3
20260509030043 54 128 0.0 0.0 0.00 0.00 0.00 85 1009.3
20260509025543 55 128 0.0 0.0 0.00 0.00 0.00 85 1009.3
20260509025043 55 128 0.0 0.0 0.00 0.00 0.00 86 1009.3
20260509024544 55 128 0.0 0.0 0.00 0.00 0.00 86 1009.3
20260509024044 55 128 0.0 0.0 0.00 0.00 0.00 86 1009.3
20260509023544 55 128 0.0 0.0 0.00 0.00 0.00 86 1009.3
20260509022545 55 128 0.0 0.0 0.00 0.00 0.00 86 1009.3
20260509022044 55 128 0.0 0.0 0.00 0.00 0.00 86 1009.3
20260509021544 53 128 0.0 0.0 0.00 0.00 0.00 85 1009.3
20260509021044 53 128 0.0 0.0 0.00 0.00 0.00 85 1009.3
20260509020545 55 128 0.0 0.0 0.00 0.00 0.00 85 1009.3
20260509020045 55 128 0.0 0.0 0.00 0.00 0.00 86 1008.9
20260509015545 55 128 0.0 0.0 0.00 0.00 0.00 86 1008.9
20260509015045 55 128 0.0 0.0 0.00 0.00 0.00 86 1008.9
20260509014545 55 128 0.0 0.0 0.00 0.00 0.00 86 1008.9
20260509014045 56 128 0.0 0.0 0.00 0.00 0.00 86 1008.9
20260509013546 55 128 0.0 0.0 0.00 0.00 0.00 86 1008.9
20260509013046 54 128 0.0 0.0 0.00 0.00 0.00 86 1008.9
20260509012546 56 128 0.0 0.0 0.00 0.00 0.00 84 1008.9
20260509012046 55 128 0.0 0.0 0.00 0.00 0.00 85 1008.9
20260509011546 55 128 0.0 0.0 0.00 0.00 0.00 84 1009.3
20260509011046 55 128 0.0 0.0 0.00 0.00 0.00 84 1008.9
20260509010547 55 128 0.0 0.0 0.00 0.00 0.00 84 1008.9
20260509010046 56 128 0.0 0.0 0.00 0.00 0.00 84 1008.9
20260509005547 56 128 0.0 0.0 0.00 0.00 0.00 84 1008.9
20260509005047 55 128 0.0 0.0 0.00 0.00 0.00 84 1008.9
20260509004047 56 128 0.0 0.0 0.00 0.00 0.00 83 1008.9
20260509003548 57 128 0.0 0.0 0.00 0.00 0.00 83 1008.6
20260509003047 55 128 0.0 0.0 0.00 0.00 0.00 82 1008.6
20260509002548 56 128 0.0 0.0 0.00 0.00 0.00 81 1008.6
20260509002048 56 128 0.0 0.0 0.00 0.00 0.00 80 1008.6
20260509001548 56 128 0.0 0.0 0.00 0.00 0.00 80 1008.6
20260509001048 56 128 0.0 0.0 0.00 0.00 0.00 79 1008.6
20260509000549 57 128 0.0 0.0 0.00 0.00 0.00 79 1008.9
20260509000049 56 128 0.0 0.0 0.00 0.00 0.00 80 1008.9
20260508235548 57 128 0.0 0.0 0.00 0.00 0.00 81 1008.6
20260508235049 56 128 0.0 0.0 0.00 0.00 0.00 81 1008.6
20260508234549 56 128 0.0 0.0 0.00 0.00 0.00 81 1008.6
20260508234049 58 128 0.0 0.0 0.00 0.00 0.00 80 1008.6
20260508233549 57 128 0.0 0.0 0.00 0.00 0.00 80 1008.6
20260508233049 57 128 0.0 0.0 0.00 0.00 0.00 80 1008.6
20260508232549 57 128 0.0 0.0 0.00 0.00 0.00 79 1008.6
20260508232049 58 128 0.0 0.0 0.00 0.00 0.00 79 1008.6
20260508231550 56 128 0.0 0.0 0.00 0.00 0.00 78 1008.6
20260508231050 57 128 0.0 0.0 0.00 0.00 0.00 78 1008.6
20260508230550 57 128 0.0 0.0 0.00 0.00 0.00 78 1008.6
20260508230050 57 128 0.0 0.0 0.00 0.00 0.00 78 1008.6
20260508225550 57 128 0.0 0.0 0.00 0.00 0.00 77 1008.6
20260508225050 58 128 0.0 0.0 0.00 0.00 0.00 76 1008.6
20260508224550 57 128 0.0 0.0 0.00 0.00 0.00 75 1008.6
20260508224050 57 128 0.0 0.0 0.00 0.00 0.00 74 1008.6
20260508223550 58 128 0.0 0.0 0.00 0.00 0.00 73 1008.6
20260508223051 58 128 0.0 0.0 0.00 0.00 0.00 73 1008.6
20260508222552 57 128 0.0 0.0 0.00 0.00 0.00 74 1008.6
20260508222051 58 128 0.0 0.0 0.00 0.00 0.00 75 1008.6
20260508220551 58 128 0.0 0.0 0.00 0.00 0.00 75 1008.6
20260508220051 57 128 0.0 0.0 0.00 0.00 0.00 76 1008.9
20260508215051 58 128 0.0 0.0 0.00 0.00 0.00 76 1008.9
20260508214551 57 128 0.0 0.0 0.00 0.00 0.00 77 1009.3
20260508214052 57 128 0.0 0.0 0.00 0.00 0.00 77 1009.3
20260508213553 56 128 0.0 0.0 0.00 0.00 0.00 77 1009.3
20260508213053 57 128 0.0 0.0 0.00 0.00 0.00 77 1009.3
20260508212553 58 128 0.0 0.0 0.00 0.00 0.00 77 1009.3
20260508212053 56 128 0.0 0.0 0.00 0.00 0.00 76 1009.3
20260508211553 56 128 0.0 0.0 0.00 0.00 0.00 78 1009.3
20260508211053 57 128 0.0 0.0 0.00 0.00 0.00 78 1009.3
20260508210054 56 128 0.0 0.0 0.00 0.00 0.00 78 1009.6
20260508205554 56 128 0.0 0.0 0.00 0.00 0.00 77 1009.6
20260508205054 56 128 0.0 0.0 0.00 0.00 0.00 77 1009.6
20260508204554 57 128 0.0 0.0 0.00 0.00 0.00 76 1009.6
20260508203555 56 128 0.0 0.0 0.00 0.00 0.00 76 1010.0
20260508203054 57 128 0.0 0.0 0.00 0.00 0.00 75 1010.0
20260508202555 56 128 0.0 0.0 0.00 0.00 0.00 75 1010.0
20260508202055 56 128 0.0 0.0 0.00 0.00 0.00 75 1010.0
20260508201555 57 128 0.0 0.0 0.00 0.00 0.00 75 1010.0
20260508201055 57 128 0.0 0.0 0.00 0.00 0.00 75 1010.0
20260508200556 58 128 0.0 0.0 0.00 0.00 0.00 74 1010.0
20260508200055 56 128 0.0 0.0 0.00 0.00 0.00 75 1010.0
20260508194556 56 128 0.0 0.0 0.00 0.00 0.00 74 1010.3
20260508194056 58 128 0.0 0.0 0.00 0.00 0.00 73 1010.3
20260508193056 58 128 0.0 0.0 0.00 0.00 0.00 73 1010.3
20260508192556 58 128 0.0 0.0 0.00 0.00 0.00 72 1010.3
20260508191557 58 128 0.0 0.0 0.00 0.00 0.00 70 1010.3
20260508191057 58 128 0.0 0.0 0.00 0.00 0.00 70 1010.3
20260508190057 58 128 0.0 0.0 0.00 0.00 0.00 69 1010.3
20260508185557 58 128 0.0 0.0 0.00 0.00 0.00 68 1010.3
20260508185058 59 128 0.0 0.0 0.00 0.00 0.00 68 1010.3
20260508184557 58 128 0.0 0.0 0.00 0.00 0.00 68 1010.0
20260508184058 58 128 0.0 0.0 0.00 0.00 0.00 68 1010.3
20260508183559 58 128 0.0 0.0 0.00 0.00 0.00 68 1010.3
20260508183058 59 128 0.0 0.0 0.00 0.00 0.00 67 1010.3
20260508182059 60 128 0.0 0.0 0.00 0.00 0.00 67 1010.0
20260508181558 60 128 0.0 0.0 0.00 0.00 0.00 66 1010.3
20260508181059 59 128 0.0 0.0 0.00 0.00 0.00 66 1010.3
20260508180559 59 128 0.0 0.0 0.00 0.00 0.00 66 1010.3
20260508180059 59 128 0.0 0.0 0.00 0.00 0.00 65 1010.3
20260508175559 60 128 0.0 0.0 0.00 0.00 0.00 65 1010.3
20260508175059 60 128 0.0 0.0 0.00 0.00 0.00 66 1010.3
20260508174559 60 128 0.0 0.0 0.00 0.00 0.00 65 1010.3
20260508174100 61 128 0.0 0.0 0.00 0.00 0.00 66 1010.3